0 HST 1 20580U 90037B 25264.26049816 .00008176 00000-0 29702-3 0 9994 2 20580 28.4668 113.2151 0002755 51.0610 309.0230 15.26400228747372 0 ISS (ZARYA) 1 25544U 98067A 25264.11993844 .00016413 00000-0 29015-3 0 9993 2 25544 51.6341 191.5777 0004375 2.4569 357.6441 15.50464492530046 0 CXO 1 25867U 99040B 25267.28468475 .00000866 00000-0 00000-0 0 9996 2 25867 51.4889 125.5367 8267597 310.4652 0.4504 0.37809440 16318